Location: ????
(32.1228°N, 34.8377°E)
Time: 03:07:28
(UTC+00:00)

Cosmos 2061 Rocket - Pass Details

Date: 21 September 2020
Orbit: 966 x 1012 km, 82.9° (Epoch: 23 October)

Event Time Altitude Azimuth Distance (km) Brightness Sun altitude
Rises 02:32:35 0° 356° (N) 3,749 7.1 -12.6°
Reaches altitude 10° 02:35:08 10° 358° (N) 2,796 6.5 -12.1°
Maximum altitude 02:41:34 74° 83° (E) 1,049 4.4 -10.7°
Drops below altitude 10° 02:47:57 10° 169° (S) 2,773 6.4 -9.4°
Sets 02:50:28 0° 171° (S) 3,715 7.1 -8.8°
